Home   Weather   Coral Harbour   Past weeks

Flag for Canada Past Weather in Coral Harbour, Nunavut, Canada — Yesterday and Last 2 Weeks

21 °F

Mostly cloudy.

Feels Like: 15 °F
Forecast: N/A
Wind: 5 mph from West

Location: Coral Harbour

Current Time: Oct 26, 2016 at 4:13:24 PM

Latest Report: Oct 26, 2016 at 3:00 PM

Visibility: 15 mi

Pressure: 30.12 "Hg

Humidity: 86%

Dew Point: 18 °F

Location of Coral HarbourLocation

Past Weather in Coral Harbour — Graph


Coral Harbour Temperature Yesterday

Maximum temperature yesterday: 23 °F (at 4:00 PM)
Minimum temperature yesterday: 10 °F (at 12:00 AM)
Average temperature yesterday: 19 °F

High & Low Weather Summary for the Past Weeks

High30 °F (Oct 12, 11:00 AM)100% (Oct 11, 6:00 PM)30.58 "Hg (Oct 11, 6:00 PM)
Low3 °F (Oct 16, 2:00 AM)69% (Oct 11, 2:00 PM)29.47 "Hg (Oct 13, 6:02 PM)
Average21 °F86%30.10 "Hg
* Reported Oct 11 2:00 PM — Oct 26 2:48 PM, Coral Harbour, Weather by CustomWeather, © 2016

Note: Actual official high and low records may vary slightly from our data, if they occured in-between our weather recording intervals... More about our weather records


Coral Harbour Weather History for the Previous 24 Hours

Scroll right to see more
Time TempWeatherWind HumidityBarometerVisibility
2:48 PM
Wed, Oct 26
21 °FPartly sunny.3 mph86%30.12 "Hg15 mi
2:00 PM21 °FOvercast.5 mph86%30.13 "Hg15 mi
1:00 PM19 °FPartly sunny.9 mph86%30.14 "Hg15 mi
12:00 PM16 °FPartly sunny.5 mph86%30.16 "Hg15 mi
11:00 AM16 °FPartly sunny.5 mph86%30.17 "Hg15 mi
10:00 AM12 °FScattered clouds.8 mph85%30.18 "Hg15 mi
9:00 AM14 °FBroken clouds.5 mph85%30.20 "Hg15 mi
8:00 AM19 °FMostly cloudy.9 mph86%30.20 "Hg15 mi
7:00 AM23 °FLight snow. Mostly cloudy.3 mph86%30.22 "Hg15 mi
6:00 AM23 °FLight snow. Overcast.8 mph86%30.22 "Hg15 mi
5:00 AM21 °FLight snow. Passing clouds.9 mph86%30.22 "Hg15 mi
4:00 AM21 °FLight snow. Passing clouds.14 mph93%30.23 "Hg15 mi
3:00 AM21 °FLight snow. Passing clouds.12 mph93%30.24 "Hg15 mi
2:00 AM25 °FLight snow. Ice fog.15 mph86%30.24 "Hg12 mi
1:00 AM23 °FLight snow. Overcast.14 mph93%30.25 "Hg15 mi
12:00 AM25 °FLight snow. Overcast.13 mph93%30.26 "Hg15 mi
11:00 PM
Tue, Oct 25
23 °FLight snow. Passing clouds.13 mph100%30.27 "Hg15 mi
10:00 PM23 °FLight snow. Overcast.12 mph100%30.28 "Hg12 mi
9:00 PM23 °FLight snow. Passing clouds.13 mph93%30.30 "Hg15 mi
8:00 PM23 °FLight snow. Mostly cloudy.10 mph93%30.32 "Hg15 mi
7:00 PM23 °FLight snow. Mostly cloudy.5 mph93%30.34 "Hg6 mi
6:00 PM23 °FLight snow. Mostly cloudy.3 mph86%30.36 "Hg15 mi
5:00 PM21 °FLight snow. Mostly cloudy.No wind93%30.37 "Hg15 mi
4:00 PM23 °FLight snow. Mostly cloudy.7 mph86%30.39 "Hg15 mi
Weather by CustomWeather, © 2016

See weather overviewHow to use our weather pages